Location: Middle Street
(51.7167°N, 0.0333°E)
Time: 02:12:55
(UTC+00:00)

Cosmos 2058 Rocket - Pass Details

Date: 20 January 2021
Orbit: 611 x 638 km, 82.5° (Epoch: 28 February)

Event Time Altitude Azimuth Distance (km) Brightness Sun altitude
Rises 17:19:59 0° 355° (N) 2,941 6.4 -8.0°
Reaches altitude 10° 17:22:24 10° 4° (N) 2,032 5.5 -8.4°
Maximum altitude 17:26:32 34° 71° (ENE) 1,047 3.7 -8.9°
Drops below altitude 10° 17:30:39 10° 137° (SE) 2,027 5.5 -9.5°
Sets 17:33:03 0° 146° (SSE) 2,932 6.4 -9.9°
